Location: Trebic
(49.2170°N, 15.8830°E)
Time: 05:27:54
(UTC+02:00)

Transit 2A Rocket - Pass Details

Date: 24 July 2019
Orbit: 590 x 913 km, 66.7° (Epoch: 24 August)

Event Time Altitude Azimuth Distance (km) Brightness Sun altitude
Rises 10:28:20 0° 325° (NW) 3,242 7.9 47.5°
Reaches altitude 10° 10:31:06 10° 336° (NNW) 2,254 7.2 47.9°
Maximum altitude 10:35:36 30° 38° (NE) 1,229 6.5 48.5°
Drops below altitude 10° 10:39:45 10° 101° (E) 2,068 8.1 49.1°
Sets 10:42:11 0° 112° (ESE) 2,931 8.7 49.4°
